{"data":{"norad_id":53999,"intl_designator":"2022-125AM","name":"STARLINK-5079","alt_names":[],"object_type":"PAYLOAD","status":"ACTIVE","operator":null,"country":"US","launch_date":"2022-10-05","launch_site_code":"AFWTR","launch_vehicle":null,"mission":null,"orbit_class":"UNKNOWN","rcs_meters":null,"size_class":null,"mass_kg":null,"dimensions":null,"purposes":["comms"],"wikipedia_slug":null,"has_3d_model":false,"image_url":null,"decayed_at":null,"tle_current":{"epoch":"2026-09-20T13:48:32.072544Z","epoch_age_seconds":80219,"freshness":"FRESH","line1":"1 53999U 22125AM  26263.57537121 -.00003081  00000+0 -80111-4 0  9995","line2":"2 53999  53.1588  51.5756 0000846  87.6737 272.4362 15.34391630218981","mean_motion":15.3439163,"eccentricity":8.46e-5,"inclination_deg":53.1588,"raan_deg":51.5756,"arg_perigee_deg":87.6737,"mean_anomaly_deg":272.4362,"bstar":-8.0111e-5,"rev_number":21898,"period_min":93.848270014351,"perigee_km":462.14938053513,"apogee_km":463.30685491305,"semimajor_km":6840.8651177241,"source":"CELESTRAK","updated_at":"2026-09-21T09:00:33.072101Z"}}}